| time (UTC) | temp F | wind direction | speed MPH | gust MPH | rain 1hr in | rain 24hr in | rain mn in | humidity % | barometer mb |
| 20260509033232 | 58 | 197 | 0.0 | 0.0 | 0.00 | 0.00 | 0.00 | 92 | 1009.7 |
| 20260509032731 | 58 | 198 | 0.0 | 0.0 | 0.00 | 0.00 | 0.00 | 91 | 1009.6 |
| 20260509032231 | 59 | 198 | 0.0 | 2.0 | 0.00 | 0.00 | 0.00 | 91 | 1009.6 |
| 20260509031409 | 59 | 153 | 1.0 | 4.0 | 0.00 | 0.00 | 0.00 | 91 | 1009.4 |
| 20260509030729 | 59 | 198 | 1.0 | 3.0 | 0.00 | 0.00 | 0.00 | 91 | 1009.3 |
| 20260509030229 | 59 | 183 | 1.0 | 2.0 | 0.00 | 0.00 | 0.00 | 90 | 1009.3 |
| 20260509025729 | 59 | 175 | 1.0 | 4.0 | 0.00 | 0.00 | 0.00 | 90 | 1009.3 |
| 20260509025320 | 59 | 174 | 1.0 | 3.0 | 0.00 | 0.00 | 0.00 | 90 | 1009.4 |
| 20260509025231 | 59 | 174 | 1.0 | 3.0 | 0.00 | 0.00 | 0.00 | 90 | 1009.4 |
| 20260509024729 | 59 | 195 | 1.0 | 4.0 | 0.00 | 0.00 | 0.00 | 91 | 1009.3 |
| 20260509024229 | 59 | 172 | 1.0 | 3.0 | 0.00 | 0.00 | 0.00 | 91 | 1009.3 |
| 20260509023729 | 59 | 174 | 1.0 | 3.0 | 0.00 | 0.00 | 0.00 | 90 | 1009.3 |
| 20260509023232 | 59 | 184 | 0.0 | 4.0 | 0.00 | 0.00 | 0.00 | 90 | 1009.3 |
| 20260509020229 | 60 | 174 | 0.0 | 2.0 | 0.00 | 0.00 | 0.00 | 87 | 1009.2 |
| 20260509013231 | 61 | 153 | 1.0 | 4.0 | 0.00 | 0.00 | 0.00 | 86 | 1009.0 |
| 20260509012232 | 62 | 186 | 2.0 | 5.0 | 0.00 | 0.00 | 0.00 | 86 | 1009.0 |
| 20260509011743 | 62 | 175 | 1.0 | 3.0 | 0.00 | 0.00 | 0.00 | 86 | 1009.0 |
| 20260509011251 | 62 | 211 | 1.0 | 3.0 | 0.00 | 0.00 | 0.00 | 85 | 1009.1 |
| 20260509005731 | 63 | 192 | 0.0 | 1.0 | 0.00 | 0.00 | 0.00 | 83 | 1009.3 |
| 20260509005231 | 64 | 192 | 0.0 | 1.0 | 0.00 | 0.00 | 0.00 | 82 | 1009.3 |
| 20260509004231 | 64 | 221 | 1.0 | 2.0 | 0.00 | 0.00 | 0.00 | 81 | 1009.4 |
| 20260509003231 | 65 | 174 | 1.0 | 3.0 | 0.00 | 0.00 | 0.00 | 80 | 1009.2 |
| 20260509002729 | 65 | 190 | 2.0 | 3.0 | 0.00 | 0.00 | 0.00 | 79 | 1009.2 |
| 20260509002229 | 66 | 153 | 2.0 | 5.0 | 0.00 | 0.00 | 0.00 | 79 | 1008.8 |
| 20260509001729 | 66 | 172 | 2.0 | 4.0 | 0.00 | 0.00 | 0.00 | 78 | 1008.9 |
| 20260509001229 | 66 | 169 | 2.0 | 5.0 | 0.00 | 0.00 | 0.00 | 77 | 1009.0 |
| 20260509000743 | 66 | 163 | 2.0 | 4.0 | 0.00 | 0.00 | 0.00 | 77 | 1009.2 |
| 20260509000229 | 67 | 155 | 1.0 | 5.0 | 0.00 | 0.00 | 0.00 | 77 | 1009.2 |
| 20260508235731 | 67 | 238 | 1.0 | 2.0 | 0.00 | 0.00 | 0.00 | 76 | 1009.3 |
| 20260508235229 | 67 | 204 | 1.0 | 4.0 | 0.00 | 0.00 | 0.00 | 75 | 1009.4 |
| 20260508234729 | 67 | 137 | 1.0 | 4.0 | 0.00 | 0.00 | 0.00 | 77 | 1009.5 |
| 20260508234243 | 67 | 205 | 1.0 | 3.0 | 0.00 | 0.00 | 0.00 | 75 | 1009.6 |
| 20260508233743 | 67 | 217 | 1.0 | 2.0 | 0.00 | 0.00 | 0.00 | 75 | 1009.6 |
| 20260508233326 | 67 | 160 | 2.0 | 5.0 | 0.00 | 0.00 | 0.00 | 74 | 1009.7 |
| 20260508232733 | 67 | 159 | 2.0 | 5.0 | 0.00 | 0.00 | 0.00 | 74 | 1009.6 |
| 20260508232229 | 68 | 179 | 2.0 | 7.0 | 0.00 | 0.00 | 0.00 | 72 | 1009.8 |
| 20260508231731 | 68 | 200 | 2.0 | 6.0 | 0.00 | 0.00 | 0.00 | 72 | 1009.7 |
| 20260508231229 | 68 | 248 | 2.0 | 5.0 | 0.00 | 0.00 | 0.00 | 71 | 1009.7 |
| 20260508230729 | 69 | 183 | 2.0 | 4.0 | 0.00 | 0.00 | 0.00 | 71 | 1009.7 |
| 20260508230301 | 69 | 226 | 3.0 | 6.0 | 0.00 | 0.00 | 0.00 | 71 | 1009.7 |
| 20260508225731 | 69 | 133 | 3.0 | 9.0 | 0.00 | 0.00 | 0.00 | 69 | 1009.6 |
| 20260508225231 | 70 | 118 | 3.0 | 5.0 | 0.00 | 0.00 | 0.00 | 70 | 1009.8 |
| 20260508224733 | 70 | 124 | 2.0 | 8.0 | 0.00 | 0.00 | 0.00 | 71 | 1009.7 |
| 20260508224229 | 69 | 203 | 2.0 | 5.0 | 0.00 | 0.00 | 0.00 | 72 | 1009.8 |
| 20260508223731 | 68 | 197 | 3.0 | 6.0 | 0.00 | 0.00 | 0.00 | 74 | 1009.7 |
| 20260508223231 | 68 | 152 | 3.0 | 7.0 | 0.00 | 0.00 | 0.00 | 72 | 1009.7 |
| 20260508222729 | 68 | 159 | 3.0 | 8.0 | 0.00 | 0.00 | 0.00 | 72 | 1009.8 |
| 20260508222229 | 68 | 168 | 2.0 | 6.0 | 0.00 | 0.00 | 0.00 | 74 | 1009.8 |
| 20260508221729 | 68 | 253 | 2.0 | 2.0 | 0.00 | 0.00 | 0.00 | 72 | 1009.6 |
| 20260508221237 | 68 | 221 | 3.0 | 7.0 | 0.00 | 0.00 | 0.00 | 72 | 1009.6 |
| 20260508220729 | 68 | 187 | 3.0 | 7.0 | 0.00 | 0.00 | 0.00 | 72 | 1009.6 |
| 20260508220229 | 68 | 147 | 3.0 | 5.0 | 0.00 | 0.00 | 0.00 | 72 | 1009.7 |
| 20260508215731 | 68 | 184 | 3.0 | 6.0 | 0.00 | 0.00 | 0.00 | 71 | 1009.6 |
| 20260508215237 | 68 | 248 | 3.0 | 8.0 | 0.00 | 0.00 | 0.00 | 72 | 1009.8 |
| 20260508214729 | 68 | 155 | 4.0 | 9.0 | 0.00 | 0.00 | 0.00 | 71 | 1009.9 |
| 20260508214243 | 69 | 157 | 3.0 | 9.0 | 0.00 | 0.00 | 0.00 | 70 | 1009.9 |
| 20260508213729 | 69 | 175 | 2.0 | 5.0 | 0.00 | 0.00 | 0.00 | 71 | 1009.9 |
| 20260508213229 | 69 | 261 | 2.0 | 4.0 | 0.00 | 0.00 | 0.00 | 71 | 1010.0 |
| 20260508212733 | 69 | 226 | 3.0 | 11.0 | 0.00 | 0.00 | 0.00 | 69 | 1010.2 |
| 20260508212231 | 69 | 191 | 3.0 | 8.0 | 0.00 | 0.00 | 0.00 | 70 | 1010.4 |
| 20260508211731 | 70 | 240 | 3.0 | 8.0 | 0.00 | 0.00 | 0.00 | 69 | 1010.5 |
| 20260508211229 | 70 | 191 | 3.0 | 9.0 | 0.00 | 0.00 | 0.00 | 69 | 1010.5 |
| 20260508210729 | 70 | 338 | 3.0 | 7.0 | 0.00 | 0.00 | 0.00 | 69 | 1010.5 |
| 20260508210229 | 70 | 180 | 4.0 | 8.0 | 0.00 | 0.00 | 0.00 | 68 | 1010.4 |
| 20260508205729 | 71 | 186 | 4.0 | 9.0 | 0.00 | 0.00 | 0.00 | 67 | 1010.5 |
| 20260508205229 | 72 | 143 | 4.0 | 11.0 | 0.00 | 0.00 | 0.00 | 69 | 1010.4 |
| 20260508204732 | 72 | 187 | 3.0 | 9.0 | 0.00 | 0.00 | 0.00 | 65 | 1010.4 |
| 20260508204237 | 72 | 179 | 3.0 | 8.0 | 0.00 | 0.00 | 0.00 | 65 | 1010.5 |
| 20260508203729 | 72 | 247 | 2.0 | 6.0 | 0.00 | 0.00 | 0.00 | 66 | 1010.6 |
| 20260508203229 | 72 | 260 | 2.0 | 6.0 | 0.00 | 0.00 | 0.00 | 67 | 1010.6 |
| 20260508202729 | 72 | 136 | 3.0 | 5.0 | 0.00 | 0.00 | 0.00 | 68 | 1010.8 |
| 20260508202229 | 71 | 137 | 3.0 | 11.0 | 0.00 | 0.00 | 0.00 | 68 | 1010.8 |
| 20260508201729 | 71 | 221 | 4.0 | 8.0 | 0.00 | 0.00 | 0.00 | 66 | 1010.9 |
| 20260508201229 | 71 | 189 | 3.0 | 8.0 | 0.00 | 0.00 | 0.00 | 66 | 1010.8 |
| 20260508200729 | 71 | 164 | 3.0 | 8.0 | 0.00 | 0.00 | 0.00 | 64 | 1010.9 |
| 20260508200320 | 71 | 233 | 4.0 | 6.0 | 0.00 | 0.00 | 0.00 | 65 | 1011.0 |
| 20260508195729 | 71 | 175 | 5.0 | 10.0 | 0.00 | 0.00 | 0.00 | 64 | 1011.1 |
| 20260508195229 | 71 | 155 | 5.0 | 14.0 | 0.00 | 0.00 | 0.00 | 65 | 1011.2 |
| 20260508194729 | 71 | 75 | 4.0 | 11.0 | 0.00 | 0.00 | 0.00 | 67 | 1011.0 |
| 20260508194229 | 70 | 149 | 4.0 | 10.0 | 0.00 | 0.00 | 0.00 | 66 | 1011.1 |
| 20260508193730 | 70 | 120 | 4.0 | 9.0 | 0.00 | 0.00 | 0.00 | 68 | 1011.1 |
| 20260508193230 | 70 | 188 | 3.0 | 4.0 | 0.00 | 0.00 | 0.00 | 68 | 1011.1 |
| 20260508192730 | 70 | 203 | 3.0 | 10.0 | 0.00 | 0.00 | 0.00 | 66 | 1011.1 |
| 20260508192230 | 71 | 150 | 3.0 | 8.0 | 0.00 | 0.00 | 0.00 | 64 | 1011.3 |
| 20260508191730 | 72 | 226 | 2.0 | 5.0 | 0.00 | 0.00 | 0.00 | 63 | 1011.3 |
| 20260508191230 | 71 | 207 | 2.0 | 5.0 | 0.00 | 0.00 | 0.00 | 66 | 1011.3 |
| 20260508190820 | 70 | 166 | 3.0 | 6.0 | 0.00 | 0.00 | 0.00 | 65 | 1011.3 |
| 20260508190237 | 70 | 193 | 3.0 | 7.0 | 0.00 | 0.00 | 0.00 | 64 | 1011.5 |
| 20260508185737 | 70 | 119 | 3.0 | 8.0 | 0.00 | 0.00 | 0.00 | 64 | 1011.3 |
| 20260508185230 | 69 | 217 | 3.0 | 9.0 | 0.00 | 0.00 | 0.00 | 66 | 1011.5 |
| 20260508184730 | 69 | 193 | 3.0 | 7.0 | 0.00 | 0.00 | 0.00 | 64 | 1011.4 |
| 20260508184230 | 69 | 155 | 3.0 | 9.0 | 0.00 | 0.00 | 0.00 | 66 | 1011.6 |
| 20260508183730 | 69 | 233 | 3.0 | 7.0 | 0.00 | 0.00 | 0.00 | 66 | 1011.6 |
| 20260508183230 | 69 | 216 | 4.0 | 7.0 | 0.00 | 0.00 | 0.00 | 65 | 1011.4 |
| 20260508182730 | 69 | 182 | 3.0 | 6.0 | 0.00 | 0.00 | 0.00 | 65 | 1011.8 |
| 20260508182232 | 69 | 219 | 3.0 | 6.0 | 0.00 | 0.00 | 0.00 | 66 | 1011.9 |
| 20260508181730 | 69 | 155 | 3.0 | 7.0 | 0.00 | 0.00 | 0.00 | 64 | 1012.1 |
| 20260508181230 | 70 | 259 | 3.0 | 6.0 | 0.00 | 0.00 | 0.00 | 64 | 1012.2 |
| 20260508180732 | 70 | 181 | 4.0 | 9.0 | 0.00 | 0.00 | 0.00 | 66 | 1012.2 |
| 20260508180230 | 70 | 144 | 2.0 | 8.0 | 0.00 | 0.00 | 0.00 | 65 | 1012.3 |
| 20260508175730 | 70 | 300 | 2.0 | 4.0 | 0.00 | 0.00 | 0.00 | 65 | 1012.4 |
| 20260508175230 | 71 | 222 | 3.0 | 8.0 | 0.00 | 0.00 | 0.00 | 62 | 1012.3 |
| 20260508174730 | 71 | 194 | 3.0 | 7.0 | 0.00 | 0.00 | 0.00 | 61 | 1012.2 |
| 20260508174231 | 71 | 144 | 2.0 | 5.0 | 0.00 | 0.00 | 0.00 | 63 | 1012.5 |
| 20260508173734 | 71 | 165 | 2.0 | 7.0 | 0.00 | 0.00 | 0.00 | 62 | 1012.5 |
| 20260508173230 | 71 | 146 | 2.0 | 5.0 | 0.00 | 0.00 | 0.00 | 62 | 1012.7 |
| 20260508172743 | 70 | 116 | 2.0 | 4.0 | 0.00 | 0.00 | 0.00 | 58 | 1012.9 |
| 20260508172230 | 70 | 240 | 3.0 | 5.0 | 0.00 | 0.00 | 0.00 | 61 | 1013.1 |
| 20260508171730 | 70 | 205 | 3.0 | 6.0 | 0.00 | 0.00 | 0.00 | 58 | 1013.1 |
| 20260508171230 | 70 | 235 | 3.0 | 6.0 | 0.00 | 0.00 | 0.00 | 64 | 1013.1 |
| 20260508170756 | 70 | 257 | 3.0 | 7.0 | 0.00 | 0.00 | 0.00 | 63 | 1013.2 |
| 20260508170321 | 70 | 183 | 3.0 | 8.0 | 0.00 | 0.00 | 0.00 | 62 | 1013.0 |
| 20260508165736 | 69 | 132 | 2.0 | 8.0 | 0.00 | 0.00 | 0.00 | 65 | 1013.1 |
| 20260508165230 | 69 | 158 | 2.0 | 5.0 | 0.00 | 0.00 | 0.00 | 64 | 1013.3 |
| 20260508164730 | 69 | 48 | 3.0 | 5.0 | 0.00 | 0.00 | 0.00 | 63 | 1013.2 |
| 20260508164230 | 69 | 171 | 3.0 | 8.0 | 0.00 | 0.00 | 0.00 | 61 | 1013.1 |
| 20260508163730 | 70 | 195 | 2.0 | 9.0 | 0.00 | 0.00 | 0.00 | 61 | 1013.1 |
| 20260508163230 | 69 | 103 | 3.0 | 5.0 | 0.00 | 0.00 | 0.00 | 62 | 1013.1 |
| 20260508162749 | 69 | 184 | 3.0 | 8.0 | 0.00 | 0.00 | 0.00 | 61 | 1013.1 |
| 20260508162232 | 69 | 130 | 3.0 | 8.0 | 0.00 | 0.00 | 0.00 | 64 | 1013.2 |
| 20260508161730 | 69 | 160 | 3.0 | 8.0 | 0.00 | 0.00 | 0.00 | 62 | 1013.4 |
| 20260508161249 | 69 | 128 | 3.0 | 8.0 | 0.00 | 0.00 | 0.00 | 62 | 1013.5 |
| 20260508160730 | 69 | 127 | 3.0 | 8.0 | 0.00 | 0.00 | 0.00 | 62 | 1013.5 |
| 20260508160230 | 69 | 180 | 2.0 | 7.0 | 0.00 | 0.00 | 0.00 | 63 | 1013.5 |
| 20260508155743 | 68 | 148 | 2.0 | 6.0 | 0.00 | 0.00 | 0.00 | 66 | 1013.7 |
| 20260508155232 | 68 | 113 | 3.0 | 6.0 | 0.00 | 0.00 | 0.00 | 65 | 1013.7 |
| 20260508154732 | 68 | 141 | 4.0 | 7.0 | 0.00 | 0.00 | 0.00 | 65 | 1014.0 |
| 20260508154244 | 68 | 210 | 4.0 | 9.0 | 0.00 | 0.00 | 0.00 | 65 | 1014.1 |
| 20260508153730 | 68 | 185 | 3.0 | 6.0 | 0.00 | 0.00 | 0.00 | 67 | 1014.2 |
| 20260508153232 | 68 | 149 | 2.0 | 6.0 | 0.00 | 0.00 | 0.00 | 66 | 1014.0 |
| 20260508152756 | 68 | 353 | 2.0 | 4.0 | 0.00 | 0.00 | 0.00 | 66 | 1014.1 |
| 20260508152230 | 68 | 161 | 2.0 | 6.0 | 0.00 | 0.00 | 0.00 | 65 | 1014.0 |
| 20260508151730 | 68 | 159 | 2.0 | 6.0 | 0.00 | 0.00 | 0.00 | 67 | 1014.1 |
| 20260508151234 | 68 | 187 | 3.0 | 7.0 | 0.00 | 0.00 | 0.00 | 67 | 1014.4 |
| 20260508150732 | 68 | 189 | 3.0 | 7.0 | 0.00 | 0.00 | 0.00 | 67 | 1014.5 |
| 20260508150230 | 68 | 142 | 3.0 | 7.0 | 0.00 | 0.00 | 0.00 | 69 | 1014.5 |
| 20260508145732 | 68 | 225 | 2.0 | 8.0 | 0.00 | 0.00 | 0.00 | 66 | 1014.8 |
| 20260508145326 | 67 | 148 | 3.0 | 3.0 | 0.00 | 0.00 | 0.00 | 69 | 1014.5 |
| 20260508144756 | 66 | 117 | 3.0 | 7.0 | 0.00 | 0.00 | 0.00 | 69 | 1014.6 |
| 20260508144239 | 66 | 176 | 2.0 | 4.0 | 0.00 | 0.00 | 0.00 | 70 | 1014.6 |
| 20260508143730 | 66 | 128 | 3.0 | 6.0 | 0.00 | 0.00 | 0.00 | 71 | 1014.7 |
| 20260508143302 | 65 | 164 | 3.0 | 7.0 | 0.00 | 0.00 | 0.00 | 71 | 1014.7 |
| 20260508142730 | 65 | 158 | 3.0 | 8.0 | 0.00 | 0.00 | 0.00 | 71 | 1014.7 |
| 20260508142230 | 64 | 195 | 3.0 | 9.0 | 0.00 | 0.00 | 0.00 | 72 | 1014.8 |
| 20260508141732 | 64 | 153 | 4.0 | 8.0 | 0.00 | 0.00 | 0.00 | 72 | 1014.8 |
| 20260508141234 | 64 | 185 | 4.0 | 8.0 | 0.00 | 0.00 | 0.00 | 72 | 1014.8 |
| 20260508140730 | 64 | 179 | 2.0 | 6.0 | 0.00 | 0.00 | 0.00 | 73 | 1014.6 |
| 20260508140232 | 63 | 107 | 2.0 | 5.0 | 0.00 | 0.00 | 0.00 | 77 | 1014.6 |
| 20260508135742 | 63 | 85 | 2.0 | 6.0 | 0.00 | 0.00 | 0.00 | 75 | 1014.6 |
| 20260508135230 | 63 | 161 | 2.0 | 6.0 | 0.00 | 0.00 | 0.00 | 77 | 1014.7 |
| 20260508134730 | 62 | 198 | 3.0 | 6.0 | 0.00 | 0.00 | 0.00 | 77 | 1014.8 |
| 20260508134230 | 62 | 147 | 3.0 | 6.0 | 0.00 | 0.00 | 0.00 | 75 | 1014.9 |
| 20260508133840 | 61 | 210 | 2.0 | 7.0 | 0.00 | 0.00 | 0.00 | 76 | 1014.9 |
| 20260508133733 | 61 | 210 | 2.0 | 7.0 | 0.00 | 0.00 | 0.00 | 76 | 1014.9 |
| 20260508133232 | 61 | 178 | 3.0 | 6.0 | 0.00 | 0.00 | 0.00 | 76 | 1014.8 |
| 20260508132732 | 62 | 194 | 2.0 | 7.0 | 0.00 | 0.00 | 0.00 | 76 | 1014.8 |
| 20260508132230 | 61 | 148 | 1.0 | 2.0 | 0.00 | 0.00 | 0.00 | 79 | 1014.8 |
| 20260508131755 | 60 | 146 | 2.0 | 4.0 | 0.00 | 0.00 | 0.00 | 79 | 1014.8 |
| 20260508131400 | 60 | 185 | 1.0 | 5.0 | 0.00 | 0.00 | 0.00 | 78 | 1014.7 |
| 20260508131230 | 60 | 185 | 1.0 | 5.0 | 0.00 | 0.00 | 0.00 | 78 | 1014.7 |
| 20260508130643 | 52 | 1 | 0.0 | 0.0 | 0.00 | 0.00 | 0.00 | 93 | 1013.9 |
| 20260508125730 | 58 | 181 | 1.0 | 3.0 | 0.00 | 0.00 | 0.00 | 81 | 1014.7 |
| 20260508125230 | 58 | 119 | 1.0 | 4.0 | 0.00 | 0.00 | 0.00 | 82 | 1014.6 |
| 20260508124312 | 56 | 139 | 1.0 | 3.0 | 0.00 | 0.00 | 0.00 | 86 | 1014.8 |